#timestamp,LO_Frequency,Hit,StdDev 
1657278015.6,286047004.4,Y
1657278035.4,286047000.7,P
1657278055.2,286046998.6,N
1657278075.1,286046999.1,N
1657278076.0,286046999.1,N
1657278095.8,286046997.6,N
1657278115.7,286046997.0,N
1657278135.5,286046997.3,N
1657278155.3,286046998.7,N
1657278175.2,286047000.8,N
1657278195.0,286046998.8,N
1657278195.9,286046998.8,N
1657278215.7,286046998.2,N
1657278235.6,286047000.4,N
1657278255.4,286046998.2,N
1657278275.3,286046998.8,N
1657278295.1,286046998.8,N
1657278296.0,286046998.8,N
1657278315.8,286046998.2,N
1657278335.7,286047000.2,N
1657278355.5,286047000.1,N
1657278375.3,286047002.3,N
1657278395.2,286047001.7,N
1657278415.0,286047004.0,N
1657278415.9,286047004.0,N
1657278435.8,286047001.4,N
1657278455.6,286047002.5,N
1657278475.4,286047005.7,N
1657278495.3,286047007.6,Y
1657278515.1,286047008.0,P
1657278535.9,286047004.5,N
1657278555.7,286047005.6,N
1657278575.5,286047005.0,N
1657278595.4,286047007.6,N
1657278615.2,286047006.5,N
1657278635.0,286047006.5,N
1657278635.9,286047006.5,N
1657278655.8,286047007.4,Y
1657278675.6,286047002.2,P
1657278695.5,286047001.4,N
1657278715.3,286047003.6,N
1657278735.1,286047001.0,N
1657278755.9,286047001.0,N
1657278775.7,286047000.3,N
1657278795.6,286046998.6,N
1657278815.4,286047002.1,N
1657278835.2,286046999.7,N
1657278855.1,286047002.4,N
1657278856.0,286047002.4,N
1657278875.8,286047002.3,N
1657278895.6,286047003.2,N
1657278915.5,286047004.4,N
1657278935.3,286047002.4,N
1657278955.1,286047004.4,N
1657278975.9,286047005.1,N
1657278995.7,286047007.0,Y
1657279015.6,286047002.5,P
1657279035.4,286046998.2,P
1657279055.2,286046999.7,N
1657279075.1,286047001.4,N
1657279076.0,286047001.4,N
1657279095.8,286047003.9,N
1657279115.6,286047003.8,N
1657279135.5,286047001.7,N
1657279155.3,286047001.7,N
1657279175.2,286047001.9,N
1657279195.9,286046999.9,N
1657279215.7,286047001.1,N
1657279235.6,286047001.0,N
1657279255.4,286046999.1,N
1657279275.2,286046999.2,N
1657279295.1,286046998.1,N
1657279296.0,286046998.1,N
1657279315.8,286046998.9,N
1657279335.7,286047000.7,N
1657279355.5,286046999.2,N
1657279375.3,286046997.8,N
1657279395.2,286046997.4,N
1657279415.0,286046995.1,N
1657279415.9,286046995.1,N
1657279435.7,286046997.4,N
1657279455.6,286046997.9,N
1657279475.4,286046996.8,N
1657279495.3,286046995.5,N
1657279515.1,286046995.7,N
1657279516.0,286046995.7,N
1657279535.8,286046995.8,N
1657279555.7,286046993.4,N
1657279575.5,286046993.6,N
1657279595.3,286046994.2,N
1657279615.2,286046991.9,N
1657279635.0,286046992.7,N
1657279635.9,286046992.7,N
1657279655.8,286046988.6,Y
1657279675.6,286046994.4,P
1657279695.4,286046993.0,P
1657279715.3,286046991.3,P
1657279735.1,286046989.6,Y
1657279755.9,286046994.1,P
1657279775.7,286046994.3,P
1657279795.5,286046992.5,P
1657279815.4,286046990.1,Y
1657279835.2,286046997.2,P
1657279855.0,286046998.0,N
1657279855.9,286046998.0,N
1657279875.8,286046995.7,N
1657279895.6,286046996.2,N
1657279915.5,286046995.9,N
1657279935.3,286046996.0,N
1657279955.1,286046993.6,Y
1657279975.9,286046995.3,P
1657279995.7,286046997.5,P
1657280015.5,286046996.2,P
1657280035.4,286046993.7,Y
1657280055.2,286046999.6,P
1657280075.1,286046996.7,N
1657280076.0,286046996.7,N
1657280095.8,286046997.9,N
1657280115.6,286046997.9,N
1657280135.5,286046997.5,N
1657280155.3,286046996.1,Y
1657280175.2,286046994.9,P
1657280195.9,286046998.0,N
1657280215.7,286046995.6,P
1657280235.6,286046995.9,Y
1657280255.4,286046999.6,P
1657280275.2,286046996.5,N
1657280295.1,286046996.5,N
1657280296.0,286046996.5,N
1657280315.8,286046996.7,N
1657280335.7,286046997.8,N
1657280355.5,286046997.9,N
1657280375.3,286046995.4,Y
1657280395.2,286047000.8,P
1657280415.9,286046999.1,N
1657280435.7,286046999.4,N
1657280455.6,286046996.7,N
1657280475.4,286046997.6,N
1657280495.3,286046994.9,Y
1657280515.1,286046996.8,P
1657280516.0,286046996.8,P
1657280535.8,286046996.7,P
1657280555.7,286046995.1,Y
1657280575.5,286046999.6,P
1657280595.3,286046995.3,P
1657280615.2,286046995.7,N
1657280635.0,286046996.1,N
1657280635.9,286046996.1,N
1657280655.8,286046995.0,Y
1657280675.6,286046999.9,P
1657280695.4,286046998.1,N
1657280715.3,286047000.7,N
1657280735.1,286047000.0,N
1657280755.8,286046998.6,N
1657280775.7,286046998.8,N
1657280795.5,286046998.6,N
1657280815.4,286046999.4,N
1657280835.2,286046999.4,N
1657280855.0,286047000.6,N
1657280855.9,286047000.6,N
1657280875.8,286046998.3,N
1657280895.6,286046999.3,N
1657280915.4,286046997.0,N
1657280935.3,286046997.2,N
1657280955.1,286046999.6,N
1657280975.9,286046996.7,N
1657280995.7,286046996.7,N
1657281015.5,286046996.8,N
1657281035.4,286046999.5,N
1657281055.2,286046996.5,N
1657281075.0,286046997.3,N
1657281075.9,286046997.3,N
1657281095.8,286046995.4,Y
1657281115.6,286046997.1,P
1657281135.5,286046995.3,P
1657281155.3,286046995.1,P
1657281175.1,286046995.9,N
1657281195.9,286046995.3,Y
1657281215.7,286047000.9,P
1657281235.6,286046999.3,N
1657281255.4,286046999.4,N
1657281275.2,286047001.1,N
1657281295.1,286046999.4,N
1657281296.0,286046999.4,N
1657281315.8,286046999.2,N
1657281335.6,286046996.5,N
1657281355.5,286046996.5,N
1657281375.3,286046997.3,N
1657281395.2,286046997.4,N
1657281415.9,286046997.7,N
1657281435.7,286046994.9,Y
1657281455.6,286046996.6,P
1657281475.4,286046997.6,N
1657281495.2,286046997.6,P
1657281515.1,286046997.5,Y
1657281516.0,286046997.5,P
1657281535.8,286046998.5,P
1657281555.7,286046999.4,N
1657281575.5,286046998.6,N
1657281595.3,286046998.4,N
